Location: Newark
(36.1358°N, 115.1208°W)
Time: 22:52:00
(UTC+00:00)

S-56A Canister/Altair - Visible Passes

Search period start: 18 February 2020 00:00
Search period end: 28 February 2020 00:00
Orbit: 633 x 2499 km, 38.9° (Epoch: 17 February)

Date Brightness Start Highest point End Pass type
(mag) Time Alt. Az. Time Alt. Az. Time Alt. Az.
18 Feb 9.8 02:14:06 10° WNW 02:24:48 47° SW 02:31:59 10° SSE visible
19 Feb 9.8 01:40:13 10° WNW 01:51:55 54° SW 01:59:44 10° SE visible
19 Feb 10.8 03:50:46 10° W 03:54:34 13° SW 03:57:53 10° SSW visible
20 Feb 10.7 03:15:51 10° W 03:21:58 18° SW 03:26:54 10° SSW visible
21 Feb 10.7 02:41:24 10° W 02:49:20 23° SW 02:55:24 10° S visible
22 Feb 10.7 02:07:09 10° W 02:16:36 28° SW 02:23:37 10° S visible
25 Feb 11.5 02:38:29 10° WSW 02:40:36 11° WSW 02:42:35 10° SW visible
26 Feb 11.5 02:02:04 10° W 02:07:52 15° WSW 02:12:52 10° SSW visible
